OKEAN-0
1 25860U 99039A 12087.94564301 .00000403 00000-0 68617-4 0 05884
2 25860 097.9267 052.2970 0001495 093.1602 266.9775 14.74128904682602
NOAA-16
1 26536U 00055A 12087.66058142 .00000349 00000-0 21278-3 0 06875
2 26536 099.1036 128.4884 0009941 315.6708 044.3662 14.12718833593527
NOAA-17
1 27453U 02032A 12087.89102679 .00000203 00000-0 10548-3 0 06496
2 27453 098.3447 119.0060 0012397 039.3178 320.8878 14.24408973507187
NOAA-18
1 28654U 05018A 12087.76792161 .00000147 00000-0 10575-3 0 01261
2 28654 099.0395 045.2159 0014818 026.8682 333.3231 14.11624239353071
NOAA-19
1 33591U 09005A 12087.89928860 .00000275 00000-0 17661-3 0 03164
2 33591 098.8591 028.7218 0013275 250.5217 109.4564 14.11311942161544
HUBBLE
1 20580U 90037B 12088.01616448 .00001490 00000-0 97603-4 0 9716
2 20580 028.4720 314.6585 0003010 268.6534 091.3672 15.02311953 2516
ISS
1 25544U 98067A 12088.55601852 .00018472 00000-0 23143-3 0 2655
2 25544 051.6416 166.1861 0015617 206.0102 352.1545 15.59686678765447
CO-58
1 28895U 05043F 12087.62899679 .00000440 00000-0 99511-4 0 01357
2 28895 097.9248 317.4379 0018719 050.1880 310.0970 14.60535523341759
FALCON
1 30776U 07006E 12087.91366001 .00003319 00000-0 22029-3 0 3112
2 30776 035.4325 053.0301 0002336 001.1819 358.8906 15.06927314277983
MAST
1 31126U 07012K 12087.95722118 .00000408 00000-0 10139-3 0 04248
2 31126 097.8761 103.8026 0094208 004.5805 355.6238 14.54079859262462
CAPE1
1 31130U 07012P 12088.47539496 .00000620 00000-0 15122-3 0 4306
2 31130 097.8869 100.7248 0102489 015.7066 344.7290 14.52831853262052
COMPASS
1 32787U 08021E 12087.67655182 .00001786 00000-0 22231-3 0 02635
2 32787 097.8073 150.8020 0014744 331.1486 028.8933 14.83670127211720
AAUSAT2
1 32788U 08021F 12087.66315361 .00001341 00000-0 16738-3 0 02527
2 32788 097.8113 151.1267 0014081 332.6351 027.4138 14.83961187211747
DO-64
1 32789U 08021G 12087.71889867 .00002262 00000-0 26961-3 0 02679
2 32789 097.8195 152.9102 0013905 328.2281 031.8097 14.85217948211780
CO-66
1 32791U 08021J 12087.63568486 .00001099 00000-0 14105-3 0 02566
2 32791 097.8080 150.5641 0015075 331.1342 028.8999 14.83145540211658
RS-30
1 32953U 08025A 12088.23826990 .00000010 00000-0 00000 0 0 6486
2 32953 082.5068 345.4821 0019349 121.5970 238.7006 12.43021674174504
TACSAT-3
1 35001U 09028A 12087.74583042 .00202185 00000-0 78005-3 0 09259
2 35001 040.4457 214.0655 0011651 026.6683 333.4743 15.85777844161554
PHARMSAT
1 35002U 09028B 12088.57152688 .00066783 00000-0 53708-3 0 8401
2 35002 040.4638 217.7335 0002903 275.8509 084.1951 15.69961702161591
METEOR-M
1 35865U 09049A 12088.22357183 -.00000009 00000-0 15790-4 0 2730
2 35865 098.6640 144.0329 0001745 301.5027 058.5978 14.21858194131099
RS-38
1 35869U 09049E 12088.18610434 .00000023 00000-0 30104-4 0 2809
2 35869 098.6598 144.0045 0003823 292.0952 067.9821 14.22060558131103
JUGNU
1 37839U 11058B 12087.48076735 .00000619 00000-0 19019-3 0 1163
2 37839 019.9603 133.2274 0019401 043.4242 316.7688 14.12037981 23680
SRMSAT
1 37841U 11058D 12088.41487279 .00000264 00000-0 00000 0 0 1183
2 37841 019.9728 130.8565 0011675 023.4267 336.6693 14.10124577 23770
RAX-2
1 37853U 11061D 12087.97354212 .00002471 00000-0 20633-3 0 01449
2 37853 101.7172 091.2252 0249871 222.2380 135.9333 14.79251602022398
AUBIESAT
1 37854U 11061E 12088.48872981 .00002439 00000-0 20063-3 0 1367
2 37854 101.7166 092.1228 0251414 219.9733 138.2721 14.79579933 22450
HRBE
1 37855U 11061F 12088.56306375 .00002337 00000-0 19329-3 0 1355
2 37855 101.7197 092.2077 0251449 219.9600 138.2860 14.79468373 22469
RS-39
1 38051U 11062C 12088.44815382 .00006591 00000-0 29056-3 0 1933
2 38051 051.6419 184.1942 0011131 105.4282 349.3903 15.22928230 9669
E-STAR
1 38079U 12006C 12088.28256558 .00034063 00000-0 85095-3 0 1084
2 38079 069.4919 139.8433 0771307 349.6147 008.9770 14.08655466 6166
GOLIAT
1 38085U 12006J 12088.50959210 .00032289 00000-0 83716-3 0 1065
2 38085 069.4865 139.3775 0770521 349.2869 009.2655 14.08074427 6192
